Time,TemperatureF,DewpointF,PressureIn,WindDirection,WindDirectionDegrees,WindSpeedMPH,WindSpeedGustMPH,Humidity,HourlyPrecipIn,Conditions,Clouds,dailyrainin,SoftwareType,DateUTC
2013-12-01 00:00:00,39.4,30.8,30.12,SW,226,1.0,6.0,71,0.00,,---,0.00,VWS V14.01,2013-12-01 05:00:00,
2013-12-01 00:01:00,39.4,30.8,30.12,SW,226,1.0,6.0,71,0.00,,---,0.00,VWS V14.01,2013-12-01 05:01:00,
2013-12-01 00:30:00,42.0,30.3,30.11,SW,229,2.0,6.0,63,0.00,,---,0.00,VWS V14.01,2013-12-01 05:30:00,
2013-12-01 00:31:00,42.0,30.3,30.11,SW,229,2.0,6.0,63,0.00,,---,0.00,VWS V14.01,2013-12-01 05:31:00,
2013-12-01 01:01:00,42.8,29.9,30.10,SSW,198,2.0,6.0,60,0.00,,---,0.00,VWS V14.01,2013-12-01 06:01:00,
2013-12-01 01:30:00,42.9,30.4,30.09,SW,226,4.0,8.0,61,0.00,,---,0.00,VWS V14.01,2013-12-01 06:30:00,
2013-12-01 01:31:00,42.9,30.4,30.09,SW,226,4.0,8.0,61,0.00,,---,0.00,VWS V14.01,2013-12-01 06:31:00,
2013-12-01 02:00:00,42.2,30.1,30.08,WSW,240,5.0,8.0,62,0.00,,---,0.00,VWS V14.01,2013-12-01 07:00:00,
2013-12-01 02:01:00,42.2,30.1,30.08,WSW,240,5.0,8.0,62,0.00,,---,0.00,VWS V14.01,2013-12-01 07:01:00,
2013-12-01 02:30:00,40.9,30.1,30.09,WSW,244,1.0,6.0,65,0.00,,---,0.00,VWS V14.01,2013-12-01 07:30:00,
2013-12-01 02:31:00,40.9,30.1,30.09,WSW,244,1.0,6.0,65,0.00,,---,0.00,VWS V14.01,2013-12-01 07:31:00,
2013-12-01 03:01:00,40.1,30.0,30.08,SW,235,3.0,7.0,67,0.00,,---,0.00,VWS V14.01,2013-12-01 08:01:00,
2013-12-01 03:31:00,40.5,30.8,30.08,SSW,195,2.0,8.0,68,0.00,,---,0.00,VWS V14.01,2013-12-01 08:31:00,
2013-12-01 04:01:00,40.6,30.9,30.06,WSW,240,2.0,6.0,68,0.00,,---,0.00,VWS V14.01,2013-12-01 09:01:00,
2013-12-01 04:30:00,39.8,31.2,30.06,SW,226,3.0,7.0,71,0.00,,---,0.00,VWS V14.01,2013-12-01 09:30:00,
2013-12-01 04:31:00,39.8,31.2,30.06,SW,226,3.0,7.0,71,0.00,,---,0.00,VWS V14.01,2013-12-01 09:31:00,
2013-12-01 05:00:00,38.9,31.0,30.06,West,266,2.0,6.0,73,0.00,,---,0.00,VWS V14.01,2013-12-01 10:00:00,
2013-12-01 05:01:00,38.9,31.0,30.06,West,266,2.0,6.0,73,0.00,,---,0.00,VWS V14.01,2013-12-01 10:01:00,
2013-12-01 05:30:00,36.1,29.3,30.07,South,184,0.0,5.0,76,0.00,,---,0.00,VWS V14.01,2013-12-01 10:30:00,
2013-12-01 05:31:00,36.1,29.3,30.07,South,184,0.0,5.0,76,0.00,,---,0.00,VWS V14.01,2013-12-01 10:31:00,
2013-12-01 06:00:00,33.7,28.8,30.07,ESE,122,1.0,1.0,82,0.00,,---,0.00,VWS V14.01,2013-12-01 11:00:00,
2013-12-01 06:01:00,33.7,28.8,30.07,ESE,122,1.0,1.0,82,0.00,,---,0.00,VWS V14.01,2013-12-01 11:01:00,
2013-12-01 06:30:00,32.9,28.6,30.07,SE,126,0.0,2.0,84,0.00,,---,0.00,VWS V14.01,2013-12-01 11:30:00,
2013-12-01 06:31:00,32.9,28.6,30.07,SE,126,0.0,2.0,84,0.00,,---,0.00,VWS V14.01,2013-12-01 11:31:00,
2013-12-01 07:00:00,32.7,28.7,30.07,ENE,67,0.0,2.0,85,0.00,,---,0.00,VWS V14.01,2013-12-01 12:00:00,
2013-12-01 07:01:00,32.7,28.7,30.07,ENE,67,0.0,2.0,85,0.00,,---,0.00,VWS V14.01,2013-12-01 12:01:00,
2013-12-01 07:31:00,32.1,28.1,30.07,ESE,117,0.0,1.0,85,0.00,,---,0.00,VWS V14.01,2013-12-01 12:31:00,
2013-12-01 08:00:00,32.2,28.5,30.07,ESE,117,0.0,1.0,86,0.00,,---,0.00,VWS V14.01,2013-12-01 13:00:00,
2013-12-01 08:01:00,32.2,28.5,30.07,ESE,117,0.0,1.0,86,0.00,,---,0.00,VWS V14.01,2013-12-01 13:01:00,
2013-12-01 08:30:00,33.1,29.4,30.07,ESE,117,1.0,1.0,86,0.00,,---,0.00,VWS V14.01,2013-12-01 13:30:00,
2013-12-01 08:31:00,33.1,29.4,30.07,ESE,117,1.0,1.0,86,0.00,,---,0.00,VWS V14.01,2013-12-01 13:31:00,
2013-12-01 09:01:00,34.3,30.6,30.07,WNW,285,1.0,2.0,86,0.00,,---,0.00,VWS V14.01,2013-12-01 14:01:00,
2013-12-01 09:30:00,35.9,31.0,30.08,West,273,2.0,5.0,82,0.00,,---,0.00,VWS V14.01,2013-12-01 14:30:00,
2013-12-01 09:31:00,35.9,31.0,30.08,West,273,2.0,5.0,82,0.00,,---,0.00,VWS V14.01,2013-12-01 14:31:00,
2013-12-01 10:01:00,36.2,31.5,30.08,WNW,298,3.0,6.0,83,0.00,,---,0.00,VWS V14.01,2013-12-01 15:01:00,
2013-12-01 10:31:00,36.4,31.4,30.09,WNW,300,3.0,5.0,82,0.00,,---,0.00,VWS V14.01,2013-12-01 15:31:00,
2013-12-01 11:00:00,37.3,32.3,30.09,NW,315,2.0,4.0,82,0.00,,---,0.00,VWS V14.01,2013-12-01 16:00:00,
2013-12-01 11:01:00,37.3,32.3,30.09,NW,315,2.0,4.0,82,0.00,,---,0.00,VWS V14.01,2013-12-01 16:01:00,
2013-12-01 11:31:00,38.4,33.4,30.08,NNW,339,2.0,3.0,82,0.00,,---,0.00,VWS V14.01,2013-12-01 16:31:00,
2013-12-01 12:00:00,38.8,34.1,30.07,WNW,292,1.0,4.0,83,0.00,,---,0.00,VWS V14.01,2013-12-01 17:00:00,
2013-12-01 12:01:00,38.8,34.1,30.07,WNW,292,1.0,4.0,83,0.00,,---,0.00,VWS V14.01,2013-12-01 17:01:00,
2013-12-01 12:30:00,40.4,35.3,30.06,NW,309,2.0,4.0,82,0.00,,---,0.00,VWS V14.01,2013-12-01 17:30:00,
2013-12-01 12:31:00,40.4,35.3,30.06,NW,309,2.0,4.0,82,0.00,,---,0.00,VWS V14.01,2013-12-01 17:31:00,
2013-12-01 13:01:00,41.4,36.3,30.04,West,276,1.0,3.0,82,0.00,,---,0.00,VWS V14.01,2013-12-01 18:01:00,
2013-12-01 13:30:00,43.3,36.9,30.03,WNW,283,2.0,2.0,78,0.00,,---,0.00,VWS V14.01,2013-12-01 18:30:00,
2013-12-01 13:31:00,43.3,36.9,30.03,WNW,283,2.0,2.0,78,0.00,,---,0.00,VWS V14.01,2013-12-01 18:31:00,
2013-12-01 14:00:00,44.0,37.3,30.02,NNW,330,2.0,5.0,77,0.00,,---,0.00,VWS V14.01,2013-12-01 19:00:00,
2013-12-01 14:01:00,44.0,37.3,30.02,NNW,330,2.0,5.0,77,0.00,,---,0.00,VWS V14.01,2013-12-01 19:01:00,
2013-12-01 14:30:00,44.7,37.3,30.01,NE,34,6.0,7.0,75,0.00,,---,0.00,VWS V14.01,2013-12-01 19:30:00,
2013-12-01 14:31:00,44.7,37.3,30.01,NE,34,6.0,7.0,75,0.00,,---,0.00,VWS V14.01,2013-12-01 19:31:00,
2013-12-01 15:00:00,43.1,37.4,30.01,NNW,339,4.0,9.0,80,0.00,,---,0.00,VWS V14.01,2013-12-01 20:00:00,
2013-12-01 15:01:00,43.1,37.4,30.01,NNW,339,4.0,9.0,80,0.00,,---,0.00,VWS V14.01,2013-12-01 20:01:00,
2013-12-01 15:31:00,42.7,37.0,30.01,North,8,5.0,10.0,80,0.00,,---,0.00,VWS V14.01,2013-12-01 20:31:00,
2013-12-01 16:00:00,42.1,36.4,30.01,NW,309,5.0,9.0,80,0.00,,---,0.00,VWS V14.01,2013-12-01 21:00:00,
2013-12-01 16:01:00,42.1,36.4,30.01,NW,309,5.0,9.0,80,0.00,,---,0.00,VWS V14.01,2013-12-01 21:01:00,
2013-12-01 16:31:00,41.7,35.4,30.02,NNW,341,6.0,10.0,78,0.00,,---,0.00,VWS V14.01,2013-12-01 21:31:00,
2013-12-01 17:00:00,41.3,35.0,30.02,NNW,327,6.0,8.0,78,0.00,,---,0.00,VWS V14.01,2013-12-01 22:00:00,
2013-12-01 17:01:00,41.3,35.0,30.02,NNW,327,6.0,8.0,78,0.00,,---,0.00,VWS V14.01,2013-12-01 22:01:00,
2013-12-01 17:31:00,40.3,34.0,30.02,NNW,329,6.0,9.0,78,0.00,,---,0.00,VWS V14.01,2013-12-01 22:31:00,
2013-12-01 18:00:00,39.1,33.8,30.03,NNW,345,1.0,6.0,81,0.00,,---,0.00,VWS V14.01,2013-12-01 23:00:00,
2013-12-01 18:01:00,39.1,33.8,30.03,NNW,345,1.0,6.0,81,0.00,,---,0.00,VWS V14.01,2013-12-01 23:01:00,
2013-12-01 18:30:00,35.9,31.5,30.03,NNW,348,1.0,2.0,84,0.00,,---,0.00,VWS V14.01,2013-12-01 23:30:00,
2013-12-01 18:31:00,35.9,31.5,30.03,NNW,348,1.0,2.0,84,0.00,,---,0.00,VWS V14.01,2013-12-01 23:31:00,
2013-12-01 19:00:00,33.5,29.8,30.03,East,88,0.0,1.0,86,0.00,,---,0.00,VWS V14.01,2013-12-02 00:00:00,
2013-12-01 19:01:00,33.5,29.8,30.03,East,88,0.0,1.0,86,0.00,,---,0.00,VWS V14.01,2013-12-02 00:01:00,
2013-12-01 19:31:00,32.5,29.9,30.03,East,88,0.0,0.0,90,0.00,,---,0.00,VWS V14.01,2013-12-02 00:31:00,
2013-12-01 20:01:00,31.3,29.0,30.03,East,88,0.0,1.0,91,0.00,,---,0.00,VWS V14.01,2013-12-02 01:01:00,
2013-12-01 20:30:00,30.3,28.3,30.02,ESE,109,1.0,1.0,92,0.00,,---,0.00,VWS V14.01,2013-12-02 01:30:00,
2013-12-01 20:31:00,30.3,28.3,30.02,ESE,109,1.0,1.0,92,0.00,,---,0.00,VWS V14.01,2013-12-02 01:31:00,
2013-12-01 21:00:00,29.3,27.3,30.02,ESE,109,1.0,1.0,92,0.00,,---,0.00,VWS V14.01,2013-12-02 02:00:00,
2013-12-01 21:01:00,29.3,27.3,30.02,ESE,109,1.0,1.0,92,0.00,,---,0.00,VWS V14.01,2013-12-02 02:01:00,
2013-12-01 21:30:00,28.4,26.6,30.02,ESE,109,0.0,1.0,93,0.00,,---,0.00,VWS V14.01,2013-12-02 02:30:00,
2013-12-01 21:31:00,28.4,26.6,30.02,ESE,109,0.0,1.0,93,0.00,,---,0.00,VWS V14.01,2013-12-02 02:31:00,
2013-12-01 22:00:00,28.1,26.6,30.02,ESE,108,0.0,1.0,94,0.00,,---,0.00,VWS V14.01,2013-12-02 03:00:00,
2013-12-01 22:01:00,28.1,26.6,30.02,ESE,108,0.0,1.0,94,0.00,,---,0.00,VWS V14.01,2013-12-02 03:01:00,
2013-12-01 22:30:00,27.8,26.3,30.02,ESE,108,0.0,1.0,94,0.00,,---,0.00,VWS V14.01,2013-12-02 03:30:00,
2013-12-01 22:31:00,27.8,26.3,30.02,ESE,108,0.0,1.0,94,0.00,,---,0.00,VWS V14.01,2013-12-02 03:31:00,
2013-12-01 23:00:00,28.0,26.5,30.01,ESE,108,0.0,1.0,94,0.00,,---,0.00,VWS V14.01,2013-12-02 04:00:00,
2013-12-01 23:01:00,28.0,26.5,30.01,ESE,108,0.0,1.0,94,0.00,,---,0.00,VWS V14.01,2013-12-02 04:01:00,
2013-12-01 23:31:00,27.1,25.6,30.00,ESE,109,0.0,1.0,94,0.00,,---,0.00,VWS V14.01,2013-12-02 04:31:00,